THOR ABLESTAR DEB, 130

Orbit data source: Space-Track

THOR ABLESTAR DEB, 130 is space debris in LEO originally from a launch on Thu, 29 Jun 1961 UTC launched from the Air Force Eastern Test Range (AFETR). Debris objects in space refer to the collection of defunct objects orbiting the Earth. Examples of debris include non-operational satellites, rocket bodies, and fragments generated from explosions, collisions, or faulty payload assembly.

Loading next visibility...
Identifier
130, 1961-015Q
Orbit
LEO
Country
Flag of USUS
Related business
Manufacturer
Unknown
Mission
Spacecraft
Bus & Motor
Unknown
Mass
Unknown
Launch date (UTC)
1961-06-29 (64 years ago)
Launch vehicle
Unknown
Launch site
Air Force Eastern Test Range (AFETR)
Object type
Payload
Rocket body
Debris
Shape & HBR
Unknown shape, 0.5 m
Radar Cross Section
Medium (>0.1 m² and <1 m²)

Expand to show TLE details & history
Last TLE update: 11 hours ago

TLE from 11 hours ago
0 THOR ABLESTAR DEB
1 00130U 61015Q   25291.96548105  .00000157  00000-0  15735-3 0  9991
2 00130  66.7686 129.9716 0078681 100.2507 260.7460 13.99350049277706
Epoch: 2025-10-18T23:10Z
TLE epoch observation values (Epoch: 2025-10-18T23:10:17.562Z)
Latitude
-0.00003°
Longitude
114.70948°
Altitude
907.772 km
Speed
7.394 km/s
True Right ascension
08h 39m 53s
True Declination
0° 00' 00"
Sunlit
Object was in daylight at epoch
Visualization orbit readout
Latitude
Unknown
Longitude
Unknown
Altitude
Unknown
Speed
Unknown
Apparent Right ascension
Unknown
Apparent Declination
Unknown
Sunlit
N/A
Visualization observer readout
Local Sidereal Time
04:40:47
Azimuth
Unknown
Elevation
Unknown
Doppler factor
Unknown
Orbital elements
Apogee altitude
951.658 km
Perigee altitude
837.216 km
Semi-major axis
7,272.574 km
Eccentricity
0.00787
Inclination
66.7686°
RAAN
129.9716°
Arg. of periapsis
100.2507°
True anomaly
259.85756°
Mean anomaly
260.746°
Eccentric anomaly
260.30163°
Mean motion
3.49954 °/min
Orbital period
102.87 mins
BSTAR
0.00015735
Loading maneuver chart data...
Computing Atmospheric mass density...

Documentation

Showing up to 5 results
|